This demonstration page uses our WeatherBlox Daily Observations layout. Learn more.

Left ArrowRight Arrow

39.08367, -84.50855

Hourly Observations for August 31, 2017

Temp ( °F °C ) Dew Point ( °F °C ) Humidity (%) Winds ( mph kmh ) Pressure ( in mb ) Visibility ( mi km ) Precip ( " mm )
12:53 am 00:53 Clear with Mist and Fog 64 17.8 64 17.8 100 100 N N/A 30.04 1017 6 9.65604 N/A
1:27 am 01:27 Clear with Mist and Fog 64 17.8 64 17.8 100 100 N N/A 30.03 1017 1.5 2.41401 N/A
1:35 am 01:35 Clear with Mist and Fog 63 17.2 63 17.2 100 100 N N/A 30.03 1017 0.75 1.207005 N/A
1:39 am 01:39 Clear with Mist and Fog 63 17.2 63 17.2 100 100 N N/A 30.03 1017 2 3.21868 N/A
1:46 am 01:46 Clear with Mist and Fog 64 17.8 64 17.8 100 100 N N/A 30.03 1017 6 9.65604 N/A
1:53 am 01:53 Clear with Mist and Fog 64 17.8 64 17.8 100 100 N N/A 30.04 1017 6 9.65604 N/A
2:20 am 02:20 Clear with Mist and Fog 64 17.8 64 17.8 100 100 N N/A 30 1016 2.5 4.02335 N/A
2:27 am 02:27 Clear with Mist and Fog 64 17.8 64 17.8 100 100 N N/A 30 1016 6 9.65604 N/A
2:53 am 02:53 Clear with Mist and Fog 63 17.2 63 17.2 100 100 NE 3 6 30.03 1017 5 8.0467 N/A
3:46 am 03:46 Partly Cloudy with Mist and Fog 63 17.2 63 17.2 100 100 N N/A 30.03 1017 4 6.43736 N/A
3:53 am 03:53 Mostly Cloudy with Mist and Fog 63 17.2 63 17.2 100 100 ENE 3 6 30.04 1017 5 8.0467 N/A
4:53 am 04:53 Cloudy with Mist and Fog 62 16.7 62 16.7 100 100 ENE 3 6 30.03 1017 5 8.0467 N/A
5:11 am 05:11 Partly Cloudy with Mist and Fog 63 17.2 63 17.2 100 100 NE 3 6 30.03 1017 5 8.0467 N/A
5:43 am 05:43 Partly Cloudy with Mist and Fog 62 16.7 62 16.7 100 100 N N/A 30.03 1017 0.75 1.207005 N/A
5:53 am 05:53 Mostly Cloudy with Fog 63 17.2 63 17.2 100 100 N N/A 30.04 1017 0.25 0.402335 N/A
6:42 am 06:42 Mostly Cloudy with Fog 63 17.2 63 17.2 100 100 NNE 3 6 30.03 1017 0.5 0.80467 N/A
6:50 am 06:50 Mostly Cloudy with Patchy Fog 64 18 64 18 100 100 N 3 6 30.03 1017 2 3.21868 N/A
6:53 am 06:53 Partly Cloudy with Patchy Fog 64 17.8 64 17.8 100 100 NNE 3 6 30.06 1018 4 6.43736 N/A
7:22 am 07:22 Cloudy with Patchy Fog 63 17.2 63 17.2 100 100 N N/A 30.03 1017 1 1.60934 N/A
7:35 am 07:35 Mostly Cloudy with Patchy Fog 63 17.2 63 17.2 100 100 N N/A 30.03 1017 3 4.82802 N/A
7:53 am 07:53 Partly Cloudy with Patchy Fog 64 17.8 64 17.8 100 100 N N/A 30.07 1018 4 6.43736 N/A
8:00 am 08:00 Cloudy with Patchy Fog 64 17.8 64 17.8 100 100 N N/A 30.06 1018 4 6.43736 N/A
8:53 am 08:53 Partly Cloudy with Mist and Fog 65 18.3 65 18.3 100 100 ENE 3 6 30.08 1019 4 6.43736 N/A
9:53 am 09:53 Mostly Cloudy 70 21.1 66 18.9 87 87 N N/A 30.09 1019 7 11.26538 N/A
10:53 am 10:53 Mostly Cloudy 72 22.2 67 19.4 84 84 N N/A 30.08 1019 7 11.26538 N/A
11:53 am 11:53 Sunny 74 23.3 67 19.4 79 79 ENE 3 6 30.07 1018 10 16.0934 N/A
12:53 pm 12:53 Sunny 79 26.1 66 18.9 65 65 E 5 7 30.05 1018 10 16.0934 N/A
1:53 pm 13:53 Partly Cloudy 82 27.8 65 18.3 56 56 NNE 6 9 30.04 1017 10 16.0934 N/A
2:53 pm 14:53 Partly Cloudy 81 27.2 64 17.8 57 57 N N/A 30.01 1016 10 16.0934 N/A
3:53 pm 15:53 Mostly Cloudy 83 28.3 65 18.3 55 55 NE 9 15 29.99 1016 10 16.0934 N/A
4:53 pm 16:53 Partly Cloudy 83 28.3 63 17.2 51 51 NNE 9 15 29.98 1015 10 16.0934 N/A
5:53 pm 17:53 Mostly Cloudy 81 27.2 64 17.8 57 57 NNE 8 13 29.98 1015 10 16.0934 N/A
6:53 pm 18:53 Mostly Cloudy 79 26.1 64 17.8 60 60 NNE 12 19 29.99 1016 10 16.0934 N/A
7:53 pm 19:53 Partly Cloudy 74 23.3 65 18.3 74 74 NE 5 7 30 1016 10 16.0934 N/A
8:53 pm 20:53 Clear 73 22.8 64 17.8 74 74 NE 14 22 30 1016 10 16.0934 N/A
9:53 pm 21:53 Clear 70 21.1 62 16.7 76 76 NE 16 26 30.01 1016 10 16.0934 N/A
10:53 pm 22:53 Clear 68 20 60 15.6 76 76 NE 18 30 30.03 1017 10 16.0934 N/A
11:53 pm 23:53 Mostly Clear 66 18.9 58 14.4 75 75 NE 12 19 30.05 1018 10 16.0934 N/A

Powered by AerisWeather